Location: Koussan�
(15.2012°N, 12.5548°W)
Time: 12:33:13
(UTC+00:00)

Cosmos 1954 Rocket - Pass Details

Date: 20 October 2020
Orbit: 752 x 781 km, 74.1° (Epoch: 26 November)

Event Time Altitude Azimuth Distance (km) Brightness Sun altitude
Rises 19:02:06 0° 349° (N) 3,210 7.3 -9.3°
Reaches altitude 10° 19:04:28 10° 350° (N) 2,288 6.5 -9.8°
Maximum altitude 19:09:40 77° 77° (ENE) 785 3.9 -11.1°
Drops below altitude 10° 19:14:53 10° 163° (SSE) 2,305 6.4 -12.3°
Sets 19:17:16 0° 164° (SSE) 3,236 7.2 -12.9°
